Location: Vancouver
(49.2500°N, 123.1330°W)
Time: 20:24:10
(UTC-08:00)

ISS - All Passes

Search period start: 19 December 2014 00:00
Search period end: 29 December 2014 00:00
Orbit: 404 x 415 km, 51.6° (Epoch: 19 December)

Date Brightness Start Highest point End Pass type
(mag) Time Alt. Az. Time Alt. Az. Time Alt. Az.
19 Dec - 14:50:57 10° SW 14:54:03 39° SSE 14:57:10 10° ENE daylight
19 Dec - 16:27:16 10° W 16:30:34 66° NNW 16:33:51 10° ENE daylight
19 Dec - 18:04:07 10° WNW 18:07:23 58° N 18:10:38 10° E visible
19 Dec - 19:40:46 10° WNW 19:44:00 53° SSW 19:47:12 10° SE visible
19 Dec - 21:18:57 10° WSW 21:19:59 11° SW 21:21:00 10° SSW night (unlit)
20 Dec - 14:00:40 10° SSW 14:03:27 25° SE 14:06:15 10° E daylight
20 Dec - 15:36:29 10° WSW 15:39:48 83° NNW 15:43:06 10° ENE daylight
20 Dec - 17:13:20 10° WNW 17:16:35 54° N 17:19:49 10° E visible
20 Dec - 18:50:00 10° WNW 18:53:18 78° SSW 18:56:34 10° ESE visible
20 Dec - 20:27:10 10° W 20:29:29 18° SW 20:31:47 10° S visible
21 Dec - 13:10:42 10° S 13:12:52 16° SE 13:15:02 10° E daylight
21 Dec - 14:45:43 10° WSW 14:49:01 73° SSE 14:52:19 10° ENE daylight
21 Dec - 16:22:27 10° W 16:25:43 54° N 16:28:57 10° ENE daylight
21 Dec - 17:59:12 10° WNW 18:02:30 78° NNE 18:05:47 10° ESE visible
21 Dec - 19:36:00 10° W 19:38:52 28° SW 19:41:43 10° SSE visible
22 Dec - 12:22:09 10° SE 12:22:18 10° SE 12:22:26 10° SE daylight
22 Dec - 13:55:02 10° SW 13:58:14 49° SSE 14:01:26 10° ENE daylight
22 Dec - 15:31:32 10° W 15:34:48 60° N 15:38:05 10° ENE daylight
22 Dec - 17:08:20 10° WNW 17:11:37 63° N 17:14:53 10° E visible
22 Dec - 18:45:00 10° WNW 18:48:09 43° SSW 18:51:16 10° SE visible
23 Dec - 13:04:28 10° SSW 13:07:27 32° SSE 13:10:26 10° E daylight
23 Dec - 14:40:34 10° W 14:43:52 73° NNW 14:47:10 10° ENE daylight
23 Dec - 16:17:24 10° WNW 16:20:40 55° N 16:23:55 10° E daylight
23 Dec - 17:54:03 10° WNW 17:57:19 65° SSW 18:00:34 10° ESE visible
23 Dec - 19:31:34 10° WSW 19:33:24 14° SW 19:35:12 10° S visible
24 Dec - 12:14:08 10° SSW 12:16:41 21° SE 12:19:14 10° E daylight
24 Dec - 13:49:36 10° WSW 13:52:55 86° SSE 13:56:14 10° ENE daylight
24 Dec - 15:26:24 10° W 15:29:39 53° N 15:32:54 10° ENE daylight
24 Dec - 17:03:05 10° WNW 17:06:24 90° NNE 17:09:41 10° ESE visible
24 Dec - 18:40:02 10° W 18:42:40 22° SW 18:45:16 10° SSE visible
25 Dec - 11:24:18 10° SSE 11:25:55 13° SE 11:27:33 10° ESE daylight
25 Dec - 12:58:42 10° SW 13:01:57 60° SSE 13:05:14 10° ENE daylight
25 Dec - 14:35:19 10° W 14:38:35 56° N 14:41:51 10° ENE daylight
25 Dec - 16:12:05 10° WNW 16:15:23 70° NNE 16:18:40 10° E daylight
25 Dec - 17:48:48 10° W 17:51:49 34° SSW 17:54:50 10° SE visible
26 Dec - 12:07:53 10° SW 12:11:00 40° SSE 12:14:07 10° ENE daylight
26 Dec - 13:44:12 10° W 13:47:29 65° NNW 13:50:47 10° ENE daylight
26 Dec - 15:21:01 10° WNW 15:24:17 59° N 15:27:33 10° E daylight
26 Dec - 16:57:39 10° WNW 17:00:52 53° SSW 17:04:04 10° SE visible
26 Dec - 18:35:53 10° WSW 18:36:50 11° SW 18:37:46 10° SSW visible
27 Dec - 11:17:14 10° SSW 11:20:03 26° SE 11:22:51 10° E daylight
27 Dec - 12:53:03 10° WSW 12:56:22 82° NNW 12:59:41 10° ENE daylight
27 Dec - 14:29:52 10° WNW 14:33:07 54° N 14:36:22 10° E daylight
27 Dec - 16:06:31 10° WNW 16:09:49 78° SSW 16:13:06 10° ESE daylight
27 Dec - 17:43:40 10° W 17:45:59 18° SW 17:48:16 10° S visible
28 Dec - 10:26:55 10° S 10:29:06 17° SE 10:31:17 10° E daylight
28 Dec - 12:01:56 10° WSW 12:05:14 73° SSE 12:08:32 10° ENE daylight
28 Dec - 13:38:39 10° W 13:41:54 54° N 13:45:09 10° ENE daylight
28 Dec - 15:15:22 10° WNW 15:18:40 79° NNE 15:21:58 10° ESE daylight
28 Dec - 16:52:09 10° W 16:55:01 28° SW 16:57:52 10° SSE visible
